Helicity
137 119 107 69 41 34 26 23 29 19 20 13 15 24 29 13 27 25 21 50 28 14 11 11 12 34 44 51 44 36 28 25 17
106 114 117 105 53 38 25 11 35 28 18 14 11 30 25 32 47 41 38 62 40 25 37 34 30 31 44 51 45 35 21 14 10
110 117 110 124 76 46 34 11 27 34 19 15 22 28 29 37 67 44 57 47 25 29 31 44 51 42 37 40 34 26 17 12 -0
100 112 119 128 111 71 39 18 46 34 26 22 26 23 29 30 38 40 72 38 31 41 61 42 63 43 45 31 20 14 12 11 10
89 112 131 133 136 114 71 65 85 46 38 38 42 40 31 35 50 54 54 34 33 51 53 49 47 46 34 30 22 22 21 6 7
198 160 143 135 131 126 100 68 67 77 93 84 67 63 67 41 24 60 52 36 35 45 54 44 34 29 33 39 23 17 19 12 -4
167 212 209 133 136 152 124 92 83 108 95 86 72 75 61 64 74 71 41 46 29 43 52 55 49 46 45 35 30 22 10 14 11
193 213 196 134 148 110 151 116 101 101 124 124 93 67 66 77 88 87 60 67 47 35 39 47 59 60 49 40 31 30 23 11 25
188 171 210 184 173 157 130 145 124 94 109 151 133 101 59 68 94 81 67 75 57 48 49 43 49 66 52 39 42 33 36 22 27
128 164 194 181 176 173 178 137 140 149 112 93 86 104 70 82 83 90 93 122 147 58 60 62 59 60 61 52 46 46 50 44 36
123 135 139 165 174 182 165 153 142 152 108 124 100 80 69 81 56 71 60 89 137 130 94 85 80 78 77 80 73 59 48 42 39
80 94 118 123 118 150 161 164 150 159 177 129 192 132 117 134 80 99 106 101 79 64 119 143 113 101 91 83 73 69 65 55 39
32 33 76 95 74 69 86 112 143 163 145 137 149 162 105 53 83 63 79 112 139 98 69 92 137 89 88 90 77 62 58 70 59
67 40 55 62 59 58 58 62 70 57 81 110 120 132 139 142 86 125 113 121 105 158 134 109 57 57 38 51 99 59 70 54 60
62 65 64 50 24 47 57 73 72 23 23 46 74 122 130 110 108 104 90 103 133 101 100 179 199 95 58 31 74 46 64 52 37
56 55 50 61 40 34 27 35 66 46 80 13 53 70 43 97 100 112 165 209 223 270 224 263 247 167 56 34 23 -34 -1 24 55
48 54 51 54 34 45 23 23 14 2 36 24 17 60 89 221 155 152 151 195 227 258 265 246 300 317 414 505 442 251 221 113 51
67 69 62 61 43 40 35 21 26 7 6 16 9 27 63 112 115 151 129 138 161 168 206 219 253 275 320 362 559 468 265 164 105
78 76 81 71 65 53 39 31 20 9 34 24 57 49 48 70 102 119 39 29 81 130 148 154 213 241 280 339 431 455 430 379 197
105 100 92 81 59 50 41 29 24 25 15 31 51 73 77 83 91 99 130 42 -14 -32 25 126 147 204 225 287 328 341 312 308 326
Wind_Speed
54 52 51 50 47 47 43 37 43 43 39 40 40 40 39 33 31 35 17 15 16 18 13 11 10 11 9 11 14 15 18 20 21
54 54 53 53 48 48 47 44 38 41 42 39 41 37 36 30 40 33 19 20 19 18 16 17 18 14 14 16 18 20 22 23 22
55 55 54 55 52 50 49 50 42 42 46 41 38 36 36 27 40 31 22 24 21 19 17 16 17 18 17 16 21 23 25 26 24
52 55 56 56 54 54 51 51 45 46 41 42 44 38 35 38 41 36 27 26 21 19 16 22 23 22 23 24 24 25 25 29 28
43 50 53 56 57 57 54 50 52 49 47 45 43 45 39 41 44 41 34 30 27 26 27 25 22 26 30 28 29 24 26 28 28
51 56 61 61 65 63 61 55 54 53 52 44 47 45 45 44 44 45 38 34 34 29 31 28 27 30 33 29 30 29 27 28 29
53 53 53 54 58 64 66 63 56 55 51 46 44 50 49 47 47 48 45 35 38 36 33 35 35 35 34 32 34 32 31 30 31
46 46 49 49 52 51 57 59 57 57 55 57 47 48 54 52 51 48 45 41 43 48 41 35 36 39 41 40 40 40 38 36 34
46 43 46 48 50 51 51 52 56 58 61 61 62 54 54 53 54 52 49 46 47 45 50 46 42 41 44 44 49 51 47 41 40
45 44 45 46 48 48 50 53 54 54 56 56 67 64 63 60 53 48 50 51 52 50 51 50 47 50 51 49 51 51 49 45 46
47 46 46 48 50 50 50 51 52 54 56 54 55 62 65 63 64 56 50 44 54 59 56 56 53 53 56 57 55 53 56 55 53
49 48 48 48 49 50 51 51 52 51 54 54 58 55 58 62 59 61 63 57 57 61 68 62 59 57 59 61 58 55 58 64 63
47 49 52 51 49 50 52 54 56 59 60 62 62 67 64 64 56 60 61 58 59 62 72 84 81 75 70 66 64 62 59 60 64
49 50 50 51 51 51 53 54 56 59 60 65 68 66 64 65 70 67 64 62 61 61 55 53 81 80 80 77 72 67 67 66 67
50 51 52 51 51 53 54 55 55 55 62 64 63 65 67 65 62 58 56 55 59 58 63 64 52 68 80 81 83 79 82 81 75
51 51 52 53 53 54 55 55 57 57 63 56 60 58 58 56 60 60 47 48 47 48 54 50 49 58 65 79 84 93 88 82 84
50 51 52 53 53 56 56 57 58 56 60 58 56 56 48 48 45 44 42 45 45 46 46 47 47 47 47 54 60 67 71 80 80
51 52 53 53 54 56 58 59 59 62 59 55 53 55 54 60 44 43 43 45 46 46 47 46 45 45 46 50 57 64 65 68 77
50 51 52 53 54 56 58 59 59 58 62 55 55 51 50 53 59 47 47 47 49 48 47 47 47 47 49 49 55 56 49 51 65
49 51 52 54 55 57 58 59 60 59 59 58 59 56 54 50 53 62 58 52 50 47 46 47 47 49 51 52 54 57 57 56 55
Wind_Direction
299 301 301 300 304 307 315 316 300 295 305 299 297 291 286 284 275 272 294 308 293 280 286 286 278 267 254 253 259 265 272 278 287
299 298 298 297 300 301 303 304 307 300 296 301 294 294 286 282 266 281 290 296 288 282 278 275 269 266 260 261 266 270 273 279 286
299 296 295 293 293 296 298 296 301 297 288 295 298 294 284 282 267 282 290 291 289 281 278 279 276 271 267 271 272 275 276 278 281
303 296 291 291 292 291 294 295 294 292 294 291 285 290 286 274 274 278 285 286 284 277 282 279 281 272 270 273 281 279 279 278 274
313 303 297 291 288 289 292 296 286 290 291 290 288 282 283 277 271 279 280 281 278 274 275 279 285 275 271 273 276 281 280 279 272
310 300 294 291 283 283 285 290 289 290 288 293 287 283 278 276 275 275 280 277 273 275 273 277 279 277 274 274 277 278 280 275 270
310 307 304 298 295 284 282 283 288 288 287 288 287 279 277 275 273 271 273 274 274 272 271 272 274 278 280 276 275 277 276 273 271
319 317 306 306 305 303 293 287 286 284 282 282 286 285 277 274 271 272 275 273 273 268 270 270 274 276 277 275 273 273 274 272 269
326 326 316 309 307 306 303 297 292 285 280 278 280 281 280 276 272 272 273 273 272 273 270 273 273 276 278 277 273 271 271 272 267
334 330 324 318 312 309 308 302 297 296 290 280 275 277 275 276 278 279 275 275 277 273 271 273 275 274 276 279 276 274 271 271 269
346 338 334 321 314 311 308 306 304 297 297 295 288 281 277 277 279 284 286 285 278 276 276 274 274 275 275 276 277 275 272 271 270
351 349 342 337 321 315 312 309 307 307 302 304 293 294 292 284 286 282 281 284 280 280 274 277 275 275 274 273 276 278 274 270 269
350 346 341 338 333 323 314 309 306 303 300 295 295 291 291 290 292 288 287 286 286 285 280 271 270 272 272 273 272 275 277 276 272
347 353 348 342 339 330 322 315 311 306 304 299 295 294 294 294 284 290 290 288 291 288 281 285 271 270 264 271 273 274 274 275 275
344 350 349 342 342 338 331 324 319 316 309 302 299 296 294 295 296 299 301 298 293 292 286 283 277 272 271 270 270 275 271 269 272
349 346 346 345 344 336 336 331 325 321 319 314 308 304 300 303 302 299 307 310 311 310 294 307 304 287 280 274 268 262 268 271 271
345 346 346 342 340 337 333 332 328 327 327 318 312 306 309 314 325 319 318 315 313 313 315 313 311 308 299 296 289 282 277 269 272
340 340 341 341 339 336 332 329 327 322 325 327 319 307 302 305 314 323 324 323 322 318 313 313 311 310 308 306 301 294 285 281 277
339 340 340 338 340 334 333 328 327 326 319 318 319 316 312 305 299 309 316 321 321 319 317 314 311 310 306 307 310 311 305 299 289
342 338 337 336 336 335 332 330 327 324 319 317 312 310 310 311 306 300 302 312 317 320 320 316 313 310 309 305 306 307 305 306 305